Year,Month,Day,Hour,Minute,Value (Times are PST for insolation in W/m^2)
2014,10,03,00,00,0.00
2014,10,03,00,01,0.00
2014,10,03,00,02,0.00
2014,10,03,00,03,0.00
2014,10,03,00,04,0.00
2014,10,03,00,05,0.00
2014,10,03,00,06,0.00
2014,10,03,00,07,0.00
2014,10,03,00,08,0.00
2014,10,03,00,09,0.00
2014,10,03,00,10,0.00
2014,10,03,00,11,0.00
2014,10,03,00,12,0.00
2014,10,03,00,13,0.00
2014,10,03,00,14,0.00
2014,10,03,00,15,0.00
2014,10,03,00,16,0.00
2014,10,03,00,17,0.00
2014,10,03,00,18,0.00
2014,10,03,00,19,0.00
2014,10,03,00,20,0.00
2014,10,03,00,21,0.00
2014,10,03,00,22,0.00
2014,10,03,00,23,0.00
2014,10,03,00,24,0.00
2014,10,03,00,25,0.00
2014,10,03,00,26,0.00
2014,10,03,00,27,0.00
2014,10,03,00,28,0.00
2014,10,03,00,29,0.00
2014,10,03,00,30,0.00
2014,10,03,00,31,0.00
2014,10,03,00,32,0.00
2014,10,03,00,33,0.00
2014,10,03,00,34,0.00
2014,10,03,00,35,0.00
2014,10,03,00,36,0.00
2014,10,03,00,37,0.00
2014,10,03,00,38,0.00
2014,10,03,00,39,0.00
2014,10,03,00,40,0.00
2014,10,03,00,41,0.00
2014,10,03,00,42,0.00
2014,10,03,00,43,0.00
2014,10,03,00,44,0.00
2014,10,03,00,45,0.00
2014,10,03,00,46,0.00
2014,10,03,00,47,0.00
2014,10,03,00,48,0.00
2014,10,03,00,49,0.00
2014,10,03,00,50,0.00
2014,10,03,00,51,0.00
2014,10,03,00,52,0.00
2014,10,03,00,53,0.00
2014,10,03,00,54,0.00
2014,10,03,00,55,0.00
2014,10,03,00,56,0.00
2014,10,03,00,57,0.00
2014,10,03,00,58,0.00
2014,10,03,00,59,0.00
2014,10,03,01,00,0.00
2014,10,03,01,01,0.00
2014,10,03,01,02,0.00
2014,10,03,01,03,0.00
2014,10,03,01,04,0.00
2014,10,03,01,05,0.00
2014,10,03,01,06,0.00
2014,10,03,01,07,0.00
2014,10,03,01,08,0.00
2014,10,03,01,09,0.00
2014,10,03,01,10,0.00
2014,10,03,01,11,0.00
2014,10,03,01,12,0.00
2014,10,03,01,13,0.00
2014,10,03,01,14,0.00
2014,10,03,01,15,0.00
2014,10,03,01,16,0.00
2014,10,03,01,17,0.00
2014,10,03,01,18,0.00
2014,10,03,01,19,0.00
2014,10,03,01,20,0.00
2014,10,03,01,21,0.00
2014,10,03,01,22,0.00
2014,10,03,01,23,0.00
2014,10,03,01,24,0.00
2014,10,03,01,25,0.00
2014,10,03,01,26,0.00
2014,10,03,01,27,0.00
2014,10,03,01,28,0.00
2014,10,03,01,29,0.00
2014,10,03,01,30,0.00
2014,10,03,01,31,0.00
2014,10,03,01,32,0.00
2014,10,03,01,33,0.00
2014,10,03,01,34,0.00
2014,10,03,01,35,0.00
2014,10,03,01,36,0.00
2014,10,03,01,37,0.00
2014,10,03,01,38,0.00
2014,10,03,01,39,0.00
2014,10,03,01,40,0.00
2014,10,03,01,41,0.00
2014,10,03,01,42,0.00
2014,10,03,01,43,0.00
2014,10,03,01,44,0.00
2014,10,03,01,45,0.00
2014,10,03,01,46,0.00
2014,10,03,01,47,0.00
2014,10,03,01,48,0.00
2014,10,03,01,49,0.00
2014,10,03,01,50,0.00
2014,10,03,01,51,0.00
2014,10,03,01,52,0.00
2014,10,03,01,53,0.00
2014,10,03,01,54,0.00
2014,10,03,01,55,0.00
2014,10,03,01,56,0.00
2014,10,03,01,57,0.00
2014,10,03,01,58,0.00
2014,10,03,01,59,0.00
2014,10,03,02,00,0.00
2014,10,03,02,01,0.00
2014,10,03,02,02,0.00
2014,10,03,02,03,0.00
2014,10,03,02,04,0.00
2014,10,03,02,05,0.00
2014,10,03,02,06,0.00
2014,10,03,02,07,0.00
2014,10,03,02,08,0.00
2014,10,03,02,09,0.00
2014,10,03,02,10,0.00
2014,10,03,02,11,0.00
2014,10,03,02,12,0.00
2014,10,03,02,13,0.00
2014,10,03,02,14,0.00
2014,10,03,02,15,0.00
2014,10,03,02,16,0.00
2014,10,03,02,17,0.00
2014,10,03,02,18,0.00
2014,10,03,02,19,0.00
2014,10,03,02,20,0.00
2014,10,03,02,21,0.00
2014,10,03,02,22,0.00
2014,10,03,02,23,0.00
2014,10,03,02,24,0.00
2014,10,03,02,25,0.00
2014,10,03,02,26,0.00
2014,10,03,02,27,0.00
2014,10,03,02,28,0.00
2014,10,03,02,29,0.00
2014,10,03,02,30,0.00
2014,10,03,02,31,0.00
2014,10,03,02,32,0.00
2014,10,03,02,33,0.00
2014,10,03,02,34,0.00
2014,10,03,02,35,0.00
2014,10,03,02,36,0.00
2014,10,03,02,37,0.00
2014,10,03,02,38,0.00
2014,10,03,02,39,0.00
2014,10,03,02,40,0.00
2014,10,03,02,41,0.00
2014,10,03,02,42,0.00
2014,10,03,02,43,0.00
2014,10,03,02,44,0.00
2014,10,03,02,45,0.00
2014,10,03,02,46,0.00
2014,10,03,02,47,0.00
2014,10,03,02,48,0.00
2014,10,03,02,49,0.00
2014,10,03,02,50,0.00
2014,10,03,02,51,0.00
2014,10,03,02,52,0.00
2014,10,03,02,53,0.00
2014,10,03,02,54,0.00
2014,10,03,02,55,0.00
2014,10,03,02,56,0.00
2014,10,03,02,57,0.00
2014,10,03,02,58,0.00
2014,10,03,02,59,0.00
2014,10,03,03,00,0.00
2014,10,03,03,01,0.00
2014,10,03,03,02,0.00
2014,10,03,03,06,0.00
2014,10,03,03,07,0.00
2014,10,03,03,08,0.00
2014,10,03,03,09,0.00
2014,10,03,03,10,0.00
2014,10,03,03,11,0.00
2014,10,03,03,12,0.00
2014,10,03,03,13,0.00
2014,10,03,03,14,0.00
2014,10,03,03,15,0.00
2014,10,03,03,16,0.00
2014,10,03,03,17,0.00
2014,10,03,03,18,0.00
2014,10,03,03,19,0.00
2014,10,03,03,20,0.00
2014,10,03,03,21,0.00
2014,10,03,03,22,0.00
2014,10,03,03,23,0.00
2014,10,03,03,24,0.00
2014,10,03,03,25,0.00
2014,10,03,03,26,0.00
2014,10,03,03,27,0.00
2014,10,03,03,28,0.00
2014,10,03,03,29,0.00
2014,10,03,03,30,0.00
2014,10,03,03,31,0.00
2014,10,03,03,32,0.00
2014,10,03,03,33,0.00
2014,10,03,03,34,0.00
2014,10,03,03,35,0.00
2014,10,03,03,36,0.00
2014,10,03,03,37,0.00
2014,10,03,03,38,0.00
2014,10,03,03,39,0.00
2014,10,03,03,40,0.00
2014,10,03,03,41,0.00
2014,10,03,03,42,0.00
2014,10,03,03,43,0.00
2014,10,03,03,44,0.00
2014,10,03,03,45,0.00
2014,10,03,03,46,0.00
2014,10,03,03,47,0.00
2014,10,03,03,48,0.00
2014,10,03,03,49,0.00
2014,10,03,03,50,0.00
2014,10,03,03,51,0.00
2014,10,03,03,52,0.00
2014,10,03,03,53,0.00
2014,10,03,03,54,0.00
2014,10,03,03,55,0.00
2014,10,03,03,56,0.00
2014,10,03,03,57,0.00
2014,10,03,03,58,0.00
2014,10,03,03,59,0.00
2014,10,03,04,00,0.00
2014,10,03,04,01,0.00
2014,10,03,04,02,0.00
2014,10,03,04,03,0.00
2014,10,03,04,04,0.00
2014,10,03,04,05,0.00
2014,10,03,04,06,0.00
2014,10,03,04,07,0.00
2014,10,03,04,08,0.00
2014,10,03,04,09,0.00
2014,10,03,04,10,0.00
2014,10,03,04,11,0.00
2014,10,03,04,12,0.00
2014,10,03,04,13,0.00
2014,10,03,04,14,0.00
2014,10,03,04,15,0.00
2014,10,03,04,16,0.00
2014,10,03,04,17,0.00
2014,10,03,04,18,0.00
2014,10,03,04,19,0.00
2014,10,03,04,20,0.00
2014,10,03,04,21,0.00
2014,10,03,04,22,0.00
2014,10,03,04,23,0.00
2014,10,03,04,24,0.00
2014,10,03,04,25,0.00
2014,10,03,04,26,0.00
2014,10,03,04,27,0.00
2014,10,03,04,28,0.00
2014,10,03,04,29,0.00
2014,10,03,04,30,0.00
2014,10,03,04,31,0.00
2014,10,03,04,32,0.00
2014,10,03,04,33,0.00
2014,10,03,04,34,0.00
2014,10,03,04,35,0.00
2014,10,03,04,36,0.00
2014,10,03,04,37,0.00
2014,10,03,04,38,0.00
2014,10,03,04,39,0.00
2014,10,03,04,40,0.00
2014,10,03,04,41,0.00
2014,10,03,04,42,0.00
2014,10,03,04,43,0.00
2014,10,03,04,44,0.00
2014,10,03,04,45,0.00
2014,10,03,04,46,0.00
2014,10,03,04,47,0.00
2014,10,03,04,48,0.00
2014,10,03,04,49,0.00
2014,10,03,04,50,0.00
2014,10,03,04,51,0.00
2014,10,03,04,52,0.00
2014,10,03,04,53,0.00
2014,10,03,04,54,0.00
2014,10,03,04,55,0.00
2014,10,03,04,56,0.00
2014,10,03,04,57,0.00
2014,10,03,04,58,0.00
2014,10,03,04,59,0.00
2014,10,03,05,00,0.00
2014,10,03,05,01,0.00
2014,10,03,05,02,0.00
2014,10,03,05,03,0.00
2014,10,03,05,04,0.00
2014,10,03,05,05,0.00
2014,10,03,05,06,0.00
2014,10,03,05,07,0.00
2014,10,03,05,08,0.00
2014,10,03,05,09,0.00
2014,10,03,05,10,0.00
2014,10,03,05,11,0.00
2014,10,03,05,12,0.00
2014,10,03,05,13,0.00
2014,10,03,05,14,0.00
2014,10,03,05,15,0.00
2014,10,03,05,16,0.00
2014,10,03,05,17,0.00
2014,10,03,05,18,0.00
2014,10,03,05,19,0.00
2014,10,03,05,20,0.00
2014,10,03,05,21,0.00
2014,10,03,05,22,0.00
2014,10,03,05,23,0.00
2014,10,03,05,24,0.00
2014,10,03,05,25,0.00
2014,10,03,05,26,0.00
2014,10,03,05,27,0.00
2014,10,03,05,28,0.00
2014,10,03,05,29,0.00
2014,10,03,05,30,0.00
2014,10,03,05,31,0.00
2014,10,03,05,32,0.00
2014,10,03,05,33,0.00
2014,10,03,05,34,0.00
2014,10,03,05,35,0.00
2014,10,03,05,36,0.00
2014,10,03,05,37,0.00
2014,10,03,05,38,0.00
2014,10,03,05,39,0.00
2014,10,03,05,40,0.00
2014,10,03,05,41,0.00
2014,10,03,05,42,0.00
2014,10,03,05,43,0.00
2014,10,03,05,44,0.00
2014,10,03,05,45,0.00
2014,10,03,05,46,0.00
2014,10,03,05,47,0.00
2014,10,03,05,48,0.00
2014,10,03,05,49,0.00
2014,10,03,05,50,0.00
2014,10,03,05,51,0.00
2014,10,03,05,52,0.00
2014,10,03,05,53,0.00
2014,10,03,05,54,0.00
2014,10,03,05,55,0.00
2014,10,03,05,56,0.00
2014,10,03,05,57,0.00
2014,10,03,05,58,0.00
2014,10,03,05,59,0.00
2014,10,03,06,00,0.00
2014,10,03,06,01,0.00
2014,10,03,06,02,0.00
2014,10,03,06,03,0.00
2014,10,03,06,04,0.00
2014,10,03,06,05,0.00
2014,10,03,06,06,0.00
2014,10,03,06,07,0.00
2014,10,03,06,08,0.00
2014,10,03,06,09,0.00
2014,10,03,06,10,0.00
2014,10,03,06,11,0.00
2014,10,03,06,12,0.00
2014,10,03,06,13,0.00
2014,10,03,06,14,0.00
2014,10,03,06,15,0.00
2014,10,03,06,16,0.00
2014,10,03,06,17,0.00
2014,10,03,06,18,0.00
2014,10,03,06,19,0.00
2014,10,03,06,20,0.00
2014,10,03,06,21,0.00
2014,10,03,06,22,0.00
2014,10,03,06,23,0.00
2014,10,03,06,24,0.00
2014,10,03,06,25,0.00
2014,10,03,06,26,0.00
2014,10,03,06,27,0.00
2014,10,03,06,28,0.00
2014,10,03,06,29,0.00
2014,10,03,06,30,0.00
2014,10,03,06,31,0.00
2014,10,03,06,32,0.00
2014,10,03,06,33,0.00
2014,10,03,06,34,0.00
2014,10,03,06,35,0.00
2014,10,03,06,36,0.00
2014,10,03,06,37,0.00
2014,10,03,06,38,0.00
2014,10,03,06,39,0.00
2014,10,03,06,40,0.00
2014,10,03,06,41,0.00
2014,10,03,06,42,0.00
2014,10,03,06,43,0.00
2014,10,03,06,44,0.00
2014,10,03,06,45,0.00
2014,10,03,06,46,0.00
2014,10,03,06,47,0.00
2014,10,03,06,48,0.00
2014,10,03,06,49,0.00
2014,10,03,06,50,0.00
2014,10,03,06,51,0.00
2014,10,03,06,52,0.00
2014,10,03,06,53,0.00
2014,10,03,06,54,0.00
2014,10,03,06,55,0.00
2014,10,03,06,56,0.00
2014,10,03,06,57,0.00
2014,10,03,06,58,0.00
2014,10,03,06,59,0.00
2014,10,03,07,00,0.00
2014,10,03,07,01,0.00
2014,10,03,07,02,0.00
2014,10,03,07,03,0.00
2014,10,03,07,04,0.00
2014,10,03,07,05,0.00
2014,10,03,07,06,0.00
2014,10,03,07,07,0.00
2014,10,03,07,08,0.00
2014,10,03,07,09,0.00
2014,10,03,07,10,0.00
2014,10,03,07,11,0.00
2014,10,03,07,12,0.00
2014,10,03,07,13,0.00
2014,10,03,07,14,0.00
2014,10,03,07,15,0.00
2014,10,03,07,16,0.00
2014,10,03,07,17,0.00
2014,10,03,07,18,0.00
2014,10,03,07,19,0.00
2014,10,03,07,20,0.00
2014,10,03,07,21,0.00
2014,10,03,07,22,0.00
2014,10,03,07,23,0.00
2014,10,03,07,24,0.00
2014,10,03,07,25,0.00
2014,10,03,07,26,0.00
2014,10,03,07,27,0.00
2014,10,03,07,28,0.70
2014,10,03,07,29,5.00
2014,10,03,07,30,5.60
2014,10,03,07,31,7.70
2014,10,03,07,32,9.00
2014,10,03,07,33,10.00
2014,10,03,07,34,11.50
2014,10,03,07,35,13.20
2014,10,03,07,36,15.30
2014,10,03,07,37,18.10
2014,10,03,07,38,22.00
2014,10,03,07,39,24.70
2014,10,03,07,40,25.00
2014,10,03,07,41,26.00
2014,10,03,07,42,28.20
2014,10,03,07,43,30.40
2014,10,03,07,44,33.00
2014,10,03,07,45,33.60
2014,10,03,07,46,35.70
2014,10,03,07,47,38.10
2014,10,03,07,48,40.00
2014,10,03,07,49,39.50
2014,10,03,07,50,37.90
2014,10,03,07,51,37.00
2014,10,03,07,52,37.00
2014,10,03,07,53,37.00
2014,10,03,07,54,38.70
2014,10,03,07,55,39.00
2014,10,03,07,56,41.90
2014,10,03,07,57,42.30
2014,10,03,07,58,45.70
2014,10,03,07,59,44.00
2014,10,03,08,00,44.50
2014,10,03,08,01,46.30
2014,10,03,08,02,47.80
2014,10,03,08,03,49.90
2014,10,03,08,04,52.00
2014,10,03,08,05,53.60
2014,10,03,08,06,54.00
2014,10,03,08,07,53.30
2014,10,03,08,08,49.90
2014,10,03,08,09,47.30
2014,10,03,08,10,46.10
2014,10,03,08,11,44.10
2014,10,03,08,12,44.00
2014,10,03,08,13,44.00
2014,10,03,08,14,44.00
2014,10,03,08,15,45.40
2014,10,03,08,16,50.80
2014,10,03,08,17,55.50
2014,10,03,08,18,58.00
2014,10,03,08,19,58.00
2014,10,03,08,20,60.40
2014,10,03,08,21,66.70
2014,10,03,08,22,74.70
2014,10,03,08,23,83.90
2014,10,03,08,24,93.70
2014,10,03,08,25,97.70
2014,10,03,08,26,102.10
2014,10,03,08,27,109.50
2014,10,03,08,28,114.00
2014,10,03,08,29,113.80
2014,10,03,08,30,112.50
2014,10,03,08,31,110.30
2014,10,03,08,32,109.00
2014,10,03,08,33,111.00
2014,10,03,08,34,113.50
2014,10,03,08,35,115.10
2014,10,03,08,36,116.00
2014,10,03,08,37,114.60
2014,10,03,08,38,111.70
2014,10,03,08,39,105.10
2014,10,03,08,40,95.90
2014,10,03,08,41,88.30
2014,10,03,08,42,83.90
2014,10,03,08,43,83.10
2014,10,03,08,44,84.00
2014,10,03,08,45,84.00
2014,10,03,08,46,84.70
2014,10,03,08,47,86.00
2014,10,03,08,48,86.00
2014,10,03,08,49,86.00
2014,10,03,08,50,86.00
2014,10,03,08,51,84.70
2014,10,03,08,52,83.30
2014,10,03,08,53,81.50
2014,10,03,08,54,82.60
2014,10,03,08,55,85.70
2014,10,03,08,56,92.70
2014,10,03,08,57,99.40
2014,10,03,08,58,115.40
2014,10,03,08,59,129.30
2014,10,03,09,00,135.50
2014,10,03,09,01,137.70
2014,10,03,09,02,138.20
2014,10,03,09,03,135.60
2014,10,03,09,04,131.90
2014,10,03,09,05,126.00
2014,10,03,09,06,117.40
2014,10,03,09,07,109.00
2014,10,03,09,08,107.00
2014,10,03,09,09,111.90
2014,10,03,09,10,125.10
2014,10,03,09,11,145.10
2014,10,03,09,12,156.00
2014,10,03,09,13,154.50
2014,10,03,09,14,149.70
2014,10,03,09,15,142.60
2014,10,03,09,16,138.30
2014,10,03,09,17,136.20
2014,10,03,09,18,136.90
2014,10,03,09,19,141.60
2014,10,03,09,20,149.10
2014,10,03,09,21,159.20
2014,10,03,09,22,172.30
2014,10,03,09,23,183.60
2014,10,03,09,24,195.00
2014,10,03,09,25,207.90
2014,10,03,09,26,217.60
2014,10,03,09,27,217.90
2014,10,03,09,28,211.70
2014,10,03,09,29,184.10
2014,10,03,09,30,170.00
2014,10,03,09,31,152.00
2014,10,03,09,32,144.10
2014,10,03,09,33,140.10
2014,10,03,09,34,136.90
2014,10,03,09,35,133.20
2014,10,03,09,36,128.80
2014,10,03,09,37,122.70
2014,10,03,09,38,115.70
2014,10,03,09,39,108.30
2014,10,03,09,40,104.30
2014,10,03,09,41,108.80
2014,10,03,09,42,127.70
2014,10,03,09,43,124.70
2014,10,03,09,44,120.70
2014,10,03,09,45,113.40
2014,10,03,09,46,134.00
2014,10,03,09,47,169.20
2014,10,03,09,48,181.90
2014,10,03,09,49,179.30
2014,10,03,09,50,170.90
2014,10,03,09,51,167.00
2014,10,03,09,52,165.60
2014,10,03,09,53,163.50
2014,10,03,09,54,156.50
2014,10,03,09,55,146.90
2014,10,03,09,56,161.20
2014,10,03,09,57,179.50
2014,10,03,09,58,184.40
2014,10,03,09,59,179.30
2014,10,03,10,00,169.00
2014,10,03,10,01,162.30
2014,10,03,10,02,176.50
2014,10,03,10,03,196.30
2014,10,03,10,04,204.00
2014,10,03,10,05,206.60
2014,10,03,10,06,208.30
2014,10,03,10,07,210.40
2014,10,03,10,08,212.50
2014,10,03,10,09,215.50
2014,10,03,10,10,217.80
2014,10,03,10,11,211.40
2014,10,03,10,12,203.80
2014,10,03,10,13,199.60
2014,10,03,10,14,196.00
2014,10,03,10,15,191.00
2014,10,03,10,16,189.30
2014,10,03,10,17,195.20
2014,10,03,10,18,204.70
2014,10,03,10,19,218.00
2014,10,03,10,20,234.60
2014,10,03,10,21,251.40
2014,10,03,10,22,268.60
2014,10,03,10,23,282.40
2014,10,03,10,24,294.70
2014,10,03,10,25,312.50
2014,10,03,10,26,309.30
2014,10,03,10,27,276.50
2014,10,03,10,28,245.40
2014,10,03,10,29,227.90
2014,10,03,10,30,224.00
2014,10,03,10,31,224.80
2014,10,03,10,32,214.70
2014,10,03,10,33,203.00
2014,10,03,10,34,197.00
2014,10,03,10,35,193.90
2014,10,03,10,36,194.20
2014,10,03,10,37,197.70
2014,10,03,10,38,199.00
2014,10,03,10,39,197.40
2014,10,03,10,40,197.00
2014,10,03,10,41,197.00
2014,10,03,10,42,180.90
2014,10,03,10,43,179.30
2014,10,03,10,44,181.80
2014,10,03,10,45,185.20
2014,10,03,10,46,186.00
2014,10,03,10,47,185.60
2014,10,03,10,48,185.00
2014,10,03,10,49,185.00
2014,10,03,10,50,185.00
2014,10,03,10,51,189.30
2014,10,03,10,52,197.50
2014,10,03,10,53,197.70
2014,10,03,10,54,189.70
2014,10,03,10,55,181.70
2014,10,03,10,56,167.70
2014,10,03,10,57,165.30
2014,10,03,10,58,175.10
2014,10,03,10,59,199.40
2014,10,03,11,00,225.60
2014,10,03,11,01,260.50
2014,10,03,11,02,292.90
2014,10,03,11,03,314.90
2014,10,03,11,04,323.00
2014,10,03,11,05,323.00
2014,10,03,11,06,323.00
2014,10,03,11,07,297.10
2014,10,03,11,08,285.00
2014,10,03,11,09,281.80
2014,10,03,11,10,287.00
2014,10,03,11,11,283.50
2014,10,03,11,12,279.00
2014,10,03,11,13,278.70
2014,10,03,11,14,284.30
2014,10,03,11,15,287.80
2014,10,03,11,16,312.80
2014,10,03,11,17,307.00
2014,10,03,11,18,275.80
2014,10,03,11,19,261.30
2014,10,03,11,20,251.20
2014,10,03,11,21,249.20
2014,10,03,11,22,252.00
2014,10,03,11,23,246.10
2014,10,03,11,24,243.20
2014,10,03,11,25,233.50
2014,10,03,11,26,216.80
2014,10,03,11,27,203.80
2014,10,03,11,28,201.00
2014,10,03,11,29,210.10
2014,10,03,11,30,208.00
2014,10,03,11,31,230.00
2014,10,03,11,32,273.30
2014,10,03,11,33,301.00
2014,10,03,11,34,311.90
2014,10,03,11,35,316.70
2014,10,03,11,36,369.40
2014,10,03,11,37,365.00
2014,10,03,11,38,408.70
2014,10,03,11,39,417.30
2014,10,03,11,40,419.30
2014,10,03,11,41,421.90
2014,10,03,11,42,399.70
2014,10,03,11,43,473.20
2014,10,03,11,44,461.20
2014,10,03,11,45,422.80
2014,10,03,11,46,494.00
2014,10,03,11,47,410.40
2014,10,03,11,48,264.00
2014,10,03,11,49,238.40
2014,10,03,11,50,259.00
2014,10,03,11,51,246.10
2014,10,03,11,52,221.70
2014,10,03,11,53,223.10
2014,10,03,11,54,223.40
2014,10,03,11,55,228.90
2014,10,03,11,56,265.50
2014,10,03,11,57,249.00
2014,10,03,11,58,230.50
2014,10,03,11,59,254.90
2014,10,03,12,00,292.20
2014,10,03,12,01,256.40
2014,10,03,12,02,253.50
2014,10,03,12,03,258.20
2014,10,03,12,04,262.70
2014,10,03,12,05,290.70
2014,10,03,12,06,283.30
2014,10,03,12,07,237.30
2014,10,03,12,08,236.60
2014,10,03,12,09,279.00
2014,10,03,12,10,318.00
2014,10,03,12,11,331.20
2014,10,03,12,12,332.50
2014,10,03,12,13,343.70
2014,10,03,12,14,350.00
2014,10,03,12,15,352.10
2014,10,03,12,16,363.20
2014,10,03,12,17,375.30
2014,10,03,12,18,381.20
2014,10,03,12,19,393.30
2014,10,03,12,20,398.10
2014,10,03,12,21,397.00
2014,10,03,12,22,405.30
2014,10,03,12,23,420.70
2014,10,03,12,24,437.80
2014,10,03,12,25,409.30
2014,10,03,12,26,399.50
2014,10,03,12,27,402.00
2014,10,03,12,28,417.60
2014,10,03,12,29,394.40
2014,10,03,12,30,411.80
2014,10,03,12,31,434.60
2014,10,03,12,32,525.40
2014,10,03,12,33,552.70
2014,10,03,12,34,488.30
2014,10,03,12,35,438.00
2014,10,03,12,36,530.20
2014,10,03,12,37,560.30
2014,10,03,12,38,525.20
2014,10,03,12,39,518.60
2014,10,03,12,40,440.10
2014,10,03,12,41,428.80
2014,10,03,12,42,469.60
2014,10,03,12,43,482.00
2014,10,03,12,44,463.10
2014,10,03,12,45,373.80
2014,10,03,12,46,351.60
2014,10,03,12,47,337.30
2014,10,03,12,48,331.30
2014,10,03,12,49,332.60
2014,10,03,12,50,347.30
2014,10,03,12,51,365.40
2014,10,03,12,52,397.70
2014,10,03,12,53,438.60
2014,10,03,12,54,428.40
2014,10,03,12,55,436.60
2014,10,03,12,56,434.50
2014,10,03,12,57,416.10
2014,10,03,12,58,437.10
2014,10,03,12,59,424.30
2014,10,03,13,00,403.00
2014,10,03,13,01,405.30
2014,10,03,13,02,420.00
2014,10,03,13,03,431.10
2014,10,03,13,04,413.40
2014,10,03,13,05,404.00
2014,10,03,13,06,387.90
2014,10,03,13,07,367.60
2014,10,03,13,08,368.40
2014,10,03,13,09,363.70
2014,10,03,13,10,347.40
2014,10,03,13,11,354.10
2014,10,03,13,12,379.90
2014,10,03,13,13,354.70
2014,10,03,13,14,334.90
2014,10,03,13,15,345.00
2014,10,03,13,16,364.00
2014,10,03,13,17,364.00
2014,10,03,13,18,374.40
2014,10,03,13,19,397.30
2014,10,03,13,20,392.30
2014,10,03,13,21,377.20
2014,10,03,13,22,359.00
2014,10,03,13,23,347.70
2014,10,03,13,24,337.90
2014,10,03,13,25,334.30
2014,10,03,13,26,342.10
2014,10,03,13,27,354.70
2014,10,03,13,28,358.40
2014,10,03,13,29,340.50
2014,10,03,13,30,335.20
2014,10,03,13,31,351.00
2014,10,03,13,32,338.00
2014,10,03,13,33,334.40
2014,10,03,13,34,329.50
2014,10,03,13,35,329.50
2014,10,03,13,36,324.10
2014,10,03,13,37,307.30
2014,10,03,13,38,291.70
2014,10,03,13,39,281.10
2014,10,03,13,40,280.70
2014,10,03,13,41,292.80
2014,10,03,13,42,309.90
2014,10,03,13,43,326.10
2014,10,03,13,44,318.70
2014,10,03,13,45,314.90
2014,10,03,13,46,288.10
2014,10,03,13,47,279.00
2014,10,03,13,48,281.50
2014,10,03,13,49,288.30
2014,10,03,13,50,303.50
2014,10,03,13,51,351.00
2014,10,03,13,52,376.00
2014,10,03,13,53,486.70
2014,10,03,13,54,453.70
2014,10,03,13,55,431.00
2014,10,03,13,56,464.50
2014,10,03,13,57,434.00
2014,10,03,13,58,461.00
2014,10,03,13,59,461.00
2014,10,03,14,00,461.00
2014,10,03,14,01,412.10
2014,10,03,14,02,285.80
2014,10,03,14,03,279.90
2014,10,03,14,04,281.00
2014,10,03,14,05,281.00
2014,10,03,14,06,297.70
2014,10,03,14,07,317.30
2014,10,03,14,08,329.10
2014,10,03,14,09,396.00
2014,10,03,14,10,369.00
2014,10,03,14,11,363.80
2014,10,03,14,12,377.50
2014,10,03,14,13,379.30
2014,10,03,14,14,372.40
2014,10,03,14,15,431.80
2014,10,03,14,16,464.30
2014,10,03,14,17,422.30
2014,10,03,14,18,443.80
2014,10,03,14,19,458.30
2014,10,03,14,20,410.50
2014,10,03,14,21,342.60
2014,10,03,14,22,302.00
2014,10,03,14,23,295.00
2014,10,03,14,24,303.50
2014,10,03,14,25,328.30
2014,10,03,14,26,343.80
2014,10,03,14,27,318.20
2014,10,03,14,28,294.70
2014,10,03,14,29,292.70
2014,10,03,14,30,307.90
2014,10,03,14,31,359.00
2014,10,03,14,32,401.00
2014,10,03,14,33,401.00
2014,10,03,14,34,365.90
2014,10,03,14,35,320.40
2014,10,03,14,36,316.80
2014,10,03,14,37,344.70
2014,10,03,14,38,359.00
2014,10,03,14,39,359.00
2014,10,03,14,40,333.10
2014,10,03,14,41,304.40
2014,10,03,14,42,287.10
2014,10,03,14,43,273.30
2014,10,03,14,44,268.30
2014,10,03,14,45,276.50
2014,10,03,14,46,279.40
2014,10,03,14,47,283.00
2014,10,03,14,48,283.80
2014,10,03,14,49,286.00
2014,10,03,14,50,291.20
2014,10,03,14,51,302.70
2014,10,03,14,52,324.00
2014,10,03,14,53,344.60
2014,10,03,14,54,343.10
2014,10,03,14,55,344.20
2014,10,03,14,56,360.40
2014,10,03,14,57,345.90
2014,10,03,14,58,334.40
2014,10,03,14,59,391.50
2014,10,03,15,00,477.50
2014,10,03,15,01,510.00
2014,10,03,15,02,461.30
2014,10,03,15,03,366.70
2014,10,03,15,04,359.20
2014,10,03,15,05,339.00
2014,10,03,15,06,324.90
2014,10,03,15,07,312.40
2014,10,03,15,08,305.40
2014,10,03,15,09,305.50
2014,10,03,15,10,306.00
2014,10,03,15,11,302.40
2014,10,03,15,12,299.10
2014,10,03,15,13,277.60
2014,10,03,15,14,261.40
2014,10,03,15,15,242.40
2014,10,03,15,16,227.00
2014,10,03,15,17,215.70
2014,10,03,15,18,211.00
2014,10,03,15,19,214.30
2014,10,03,15,20,223.80
2014,10,03,15,21,238.70
2014,10,03,15,22,255.10
2014,10,03,15,23,263.60
2014,10,03,15,24,275.70
2014,10,03,15,25,267.50
2014,10,03,15,26,262.30
2014,10,03,15,27,264.90
2014,10,03,15,28,254.40
2014,10,03,15,29,248.00
2014,10,03,15,30,250.00
2014,10,03,15,31,258.40
2014,10,03,15,32,263.70
2014,10,03,15,33,268.60
2014,10,03,15,34,272.40
2014,10,03,15,35,276.10
2014,10,03,15,36,278.60
2014,10,03,15,37,274.20
2014,10,03,15,38,276.70
2014,10,03,15,39,279.00
2014,10,03,15,40,404.10
2014,10,03,15,41,476.60
2014,10,03,15,42,438.20
2014,10,03,15,43,428.00
2014,10,03,15,44,341.90
2014,10,03,15,45,287.60
2014,10,03,15,46,292.90
2014,10,03,15,47,305.00
2014,10,03,15,48,326.60
2014,10,03,15,49,352.00
2014,10,03,15,50,352.00
2014,10,03,15,51,401.70
2014,10,03,15,52,383.60
2014,10,03,15,53,344.10
2014,10,03,15,54,302.10
2014,10,03,15,55,293.20
2014,10,03,15,56,309.40
2014,10,03,15,57,254.00
2014,10,03,15,58,275.30
2014,10,03,15,59,314.70
2014,10,03,16,00,358.20
2014,10,03,16,01,363.80
2014,10,03,16,02,328.00
2014,10,03,16,03,318.10
2014,10,03,16,04,352.00
2014,10,03,16,05,292.60
2014,10,03,16,06,263.00
2014,10,03,16,07,269.00
2014,10,03,16,08,269.00
2014,10,03,16,09,309.50
2014,10,03,16,10,323.00
2014,10,03,16,11,402.50
2014,10,03,16,12,415.00
2014,10,03,16,13,239.00
2014,10,03,16,14,237.60
2014,10,03,16,15,226.90
2014,10,03,16,16,214.20
2014,10,03,16,17,201.10
2014,10,03,16,18,192.90
2014,10,03,16,19,181.20
2014,10,03,16,20,179.00
2014,10,03,16,21,184.40
2014,10,03,16,22,201.40
2014,10,03,16,23,219.00
2014,10,03,16,24,208.50
2014,10,03,16,25,206.40
2014,10,03,16,26,204.30
2014,10,03,16,27,195.40
2014,10,03,16,28,183.20
2014,10,03,16,29,166.00
2014,10,03,16,30,160.60
2014,10,03,16,31,161.10
2014,10,03,16,32,153.70
2014,10,03,16,33,157.00
2014,10,03,16,34,170.40
2014,10,03,16,35,163.60
2014,10,03,16,36,153.10
2014,10,03,16,37,153.50
2014,10,03,16,38,155.00
2014,10,03,16,39,155.00
2014,10,03,16,40,160.70
2014,10,03,16,41,164.70
2014,10,03,16,42,166.90
2014,10,03,16,43,171.90
2014,10,03,16,44,171.00
2014,10,03,16,45,171.00
2014,10,03,16,46,171.00
2014,10,03,16,47,171.30
2014,10,03,16,48,171.60
2014,10,03,16,49,168.30
2014,10,03,16,50,163.40
2014,10,03,16,51,159.70
2014,10,03,16,52,153.70
2014,10,03,16,53,147.40
2014,10,03,16,54,144.50
2014,10,03,16,55,142.40
2014,10,03,16,56,137.70
2014,10,03,16,57,134.10
2014,10,03,16,58,131.80
2014,10,03,16,59,130.00
2014,10,03,17,00,130.40
2014,10,03,17,01,131.00
2014,10,03,17,02,128.60
2014,10,03,17,03,130.00
2014,10,03,17,04,133.20
2014,10,03,17,05,136.00
2014,10,03,17,06,138.40
2014,10,03,17,07,135.30
2014,10,03,17,08,133.40
2014,10,03,17,09,134.00
2014,10,03,17,10,132.40
2014,10,03,17,11,132.00
2014,10,03,17,12,134.90
2014,10,03,17,13,150.40
2014,10,03,17,14,139.30
2014,10,03,17,15,142.00
2014,10,03,17,16,147.70
2014,10,03,17,17,151.60
2014,10,03,17,18,149.10
2014,10,03,17,19,151.90